Location: Casone le Fosse
(44.6547°N, 12.1103°E)
Time: 09:12:57
(UTC+00:00)

Cosmos 1400 Rocket - Pass Details

Date: 29 October 2020
Orbit: 521 x 568 km, 81.2° (Epoch: 27 November)

Event Time Altitude Azimuth Distance (km) Brightness Sun altitude
Rises 17:05:40 0° 190° (S) 2,751 6.6 -11.5°
Reaches altitude 10° 17:07:50 10° 191° (SSW) 1,856 5.8 -11.8°
Maximum altitude 17:11:57 84° 281° (W) 571 2.9 -12.6°
Drops below altitude 10° 17:16:03 10° 9° (N) 1,851 5.3 -13.3°
Sets 17:18:13 0° 10° (N) 2,743 6.2 -13.7°
